Location: ???????
(55.7027°N, 37.3832°E)
Time: 21:03:13
(UTC+00:00)

NOSS 2-1 (D) - Pass Details

Date: 14 April 2026
Orbit: 373 x 1667 km, 63.3° (Epoch: 16 May)

Event Time Altitude Azimuth Distance (km) Brightness Sun altitude
Rises 17:13:29 0° 307° (NW) 2,246 8.6 -5.9°
Reaches altitude 10° 17:15:28 10° 316° (NW) 1,417 6.9 -6.2°
Maximum altitude 17:18:20 39° 28° (NNE) 642 3.7 -6.5°
Drops below altitude 10° 17:21:42 10° 100° (E) 1,657 5.2 -6.9°
Enters shadow 17:22:06 - 101° (ESE) 1,821 5.4 -7.0°
